Regional Weather Roundup
Issued by NWS

Home | Current Version | Previous Version | Graphics & Text | Print | Product List | Glossary On
Versions: 1 2 3 4 5 6 7 8 9 10 11 12 13 14 15 16 17 18 19 20 21 22 23 24 25 26 27 28 29 30 31 32 33 34 35 36 37 38 39 40 41 42 43 44 45 46 47 48 49 50
950
ASUS45 KCYS 230710
RWRWY

WYOMING REGIONAL WEATHER ROUNDUP
NATIONAL WEATHER SERVICE CHEYENNE WY
100 AM MDT MON MAY 23 2016

NOTE:  "FAIR" INDICATES FEW OR NO CLOUDS BELOW 12,000 FEET
WITH NO SIGNIFICANT WEATHER AND/OR OBSTRUCTIONS TO VISIBILITY.

WYZ001-230800-
YELLOWSTONE NATIONAL PARK

CITY           SKY/WX    TMP DP  RH WIND       PRES   REMARKS
LK YELLOWSTONE   N/A     33  27  78 VRB3      29.97F
W YELLOWSTONE  NOT AVBL

$$
WYZ002>013-054>058-071-098>099-230800-
NORTHERN WYOMING

CITY           SKY/WX    TMP DP  RH WIND       PRES   REMARKS
JACKSON        MOCLDY    34  32  93 S6        29.99S WCI  29
CODY           FAIR      46  27  46 SW15      29.84S
GREYBULL       FAIR      54  25  32 NW8       29.80F
WORLAND        FAIR      45  25  45 VRB7      29.82S
SHERIDAN       FAIR      45  28  51 SE6       29.76F
BUFFALO        FAIR      50  23  34 NW10      29.81S
GILLETTE       FAIR      45  32  60 SW13      29.77R
HULETT         FAIR      50  36  57 SW12      29.77R
NEWCASTLE      FAIR      50  32  50 N3        29.80R

$$
WYZ014>020-022>026-101>103-230800-
CENTRAL WYOMING

CITY           SKY/WX    TMP DP  RH WIND       PRES   REMARKS
BIG PINEY      FAIR      34  26  72 CALM      30.02F
PINEDALE       FAIR      32  27  80 CALM      30.03F
DUBOIS         FAIR      32  28  86 NW17G23   29.95F WCI  21
LANDER         FAIR      43  23  45 E7        29.88S
RIVERTON       FAIR      42  24  49 W8        29.89S
CASPER         FAIR      42  29  59 SW12      29.88R
DOUGLAS        FAIR      45  32  60 CALM      29.88R

$$
WYZ021-027>030-104>119-230800-
SOUTHERN WYOMING

CITY           SKY/WX    TMP DP  RH WIND       PRES   REMARKS
EVANSTON       FAIR      35  30  82 NE5       30.03F WCI  31
KEMMERER         N/A     32  30  93 SW3       30.03F
FORT BRIDGER   SUNNY     34  34 100 W6        30.06F WCI  29
ROCK SPRINGS   FAIR      37  31  78 W13       30.02F WCI  29
DIXON          FAIR      32  30  92 NE5       30.05F WCI  28
RAWLINS        FAIR      36  30  79 SW7       30.00R WCI  30
SARATOGA       FAIR      32  30  93 W5        30.01F WCI  27
LARAMIE        FAIR      34  28  79 CALM      29.95F
CHEYENNE       FAIR      45  28  51 NW13      29.93R
TORRINGTON     NOT AVBL
PINE BLUFFS    CLOUDY    48  32  53 NW14      29.91R

$$




USA.gov is the U.S. government's official web portal to all federal, state and local government web resources and services.